Time,TemperatureF,DewpointF,PressureIn,WindDirection,WindDirectionDegrees,WindSpeedMPH,WindSpeedGustMPH,Humidity,HourlyPrecipIn,Conditions,Clouds,dailyrainin,SoftwareType,DateUTC
2013-01-06 00:02:00,43.9,19.0,30.20,SE,146,3.0,5.0,37,0.00,,,0.00,weatherlink.com 1.10,2013-01-06 07:02:00,
2013-01-06 00:17:00,43.8,19.0,30.19,East,101,2.0,4.0,37,0.00,,,0.00,weatherlink.com 1.10,2013-01-06 07:17:00,
2013-01-06 00:32:00,42.5,20.0,30.19,SE,135,1.0,5.0,40,0.00,,,0.00,weatherlink.com 1.10,2013-01-06 07:32:00,
2013-01-06 00:47:00,42.4,19.0,30.19,SE,128,2.0,6.0,40,0.00,,,0.00,weatherlink.com 1.10,2013-01-06 07:47:00,
2013-01-06 01:02:00,42.4,19.0,30.18,SE,131,3.0,5.0,40,0.00,,,0.00,weatherlink.com 1.10,2013-01-06 08:02:00,
2013-01-06 01:17:00,42.0,19.0,30.18,SE,131,3.0,6.0,40,0.00,,,0.00,weatherlink.com 1.10,2013-01-06 08:17:00,
2013-01-06 01:32:00,43.1,19.0,30.18,East,99,3.0,7.0,38,0.00,,,0.00,weatherlink.com 1.10,2013-01-06 08:32:00,
2013-01-06 01:47:00,44.7,19.0,30.18,ESE,121,3.0,8.0,36,0.00,,,0.00,weatherlink.com 1.10,2013-01-06 08:47:00,
2013-01-06 02:02:00,44.0,19.0,30.19,SE,131,2.0,6.0,37,0.00,,,0.00,weatherlink.com 1.10,2013-01-06 09:02:00,
2013-01-06 02:17:00,43.3,18.0,30.18,ESE,115,1.0,3.0,37,0.00,,,0.00,weatherlink.com 1.10,2013-01-06 09:17:00,
2013-01-06 02:32:00,43.5,19.0,30.18,East,94,3.0,4.0,37,0.00,,,0.00,weatherlink.com 1.10,2013-01-06 09:32:00,
2013-01-06 02:47:00,43.4,19.0,30.18,SE,127,1.0,4.0,37,0.00,,,0.00,weatherlink.com 1.10,2013-01-06 09:47:00,
2013-01-06 03:02:00,43.4,19.0,30.18,SSE,156,3.0,4.0,37,0.00,,,0.00,weatherlink.com 1.10,2013-01-06 10:02:00,
2013-01-06 03:17:00,44.4,18.0,30.18,ESE,112,2.0,6.0,35,0.00,,,0.00,weatherlink.com 1.10,2013-01-06 10:17:00,
2013-01-06 03:32:00,44.9,19.0,30.18,NE,46,2.0,6.0,35,0.00,,,0.00,weatherlink.com 1.10,2013-01-06 10:32:00,
2013-01-06 03:47:00,44.8,19.0,30.17,SE,125,2.0,6.0,35,0.00,,,0.00,weatherlink.com 1.10,2013-01-06 10:47:00,
2013-01-06 04:02:00,44.5,19.0,30.17,East,98,2.0,7.0,36,0.00,,,0.00,weatherlink.com 1.10,2013-01-06 11:02:00,
2013-01-06 04:17:00,43.3,18.0,30.16,SSE,153,4.0,7.0,37,0.00,,,0.00,weatherlink.com 1.10,2013-01-06 11:17:00,
2013-01-06 04:33:00,43.7,19.0,30.16,East,91,4.0,8.0,37,0.00,,,0.00,weatherlink.com 1.10,2013-01-06 11:33:00,
2013-01-06 04:48:00,44.2,18.0,30.15,ESE,115,4.0,9.0,35,0.00,,,0.00,weatherlink.com 1.10,2013-01-06 11:48:00,
2013-01-06 05:03:00,44.4,18.0,30.15,East,86,3.0,8.0,35,0.00,,,0.00,weatherlink.com 1.10,2013-01-06 12:03:00,
2013-01-06 05:18:00,44.0,18.0,30.15,ESE,112,5.0,10.0,35,0.00,,,0.00,weatherlink.com 1.10,2013-01-06 12:18:00,
2013-01-06 05:33:00,44.1,19.0,30.15,SE,142,8.0,11.0,36,0.00,,,0.00,weatherlink.com 1.10,2013-01-06 12:33:00,
2013-01-06 05:48:00,43.7,18.0,30.14,SE,145,5.0,15.0,36,0.00,,,0.00,weatherlink.com 1.10,2013-01-06 12:48:00,
2013-01-06 06:03:00,43.8,18.0,30.15,ESE,105,6.0,10.0,36,0.00,,,0.00,weatherlink.com 1.10,2013-01-06 13:03:00,
2013-01-06 06:18:00,43.9,18.0,30.14,SE,136,6.0,10.0,36,0.00,,,0.00,weatherlink.com 1.10,2013-01-06 13:18:00,
2013-01-06 06:33:00,44.2,18.0,30.14,ESE,105,6.0,13.0,35,0.00,,,0.00,weatherlink.com 1.10,2013-01-06 13:33:00,
2013-01-06 06:48:00,44.5,18.0,30.14,ESE,121,4.0,10.0,34,0.00,,,0.00,weatherlink.com 1.10,2013-01-06 13:48:00,
2013-01-06 07:03:00,45.3,17.0,30.14,East,96,7.0,10.0,32,0.00,,,0.00,weatherlink.com 1.10,2013-01-06 14:03:00,
2013-01-06 07:18:00,46.5,16.0,30.14,ESE,111,5.0,12.0,30,0.00,,,0.00,weatherlink.com 1.10,2013-01-06 14:18:00,
2013-01-06 07:33:00,46.9,17.0,30.14,East,98,9.0,13.0,30,0.00,,,0.00,weatherlink.com 1.10,2013-01-06 14:33:00,
2013-01-06 07:48:00,46.5,17.0,30.14,SSW,197,6.0,13.0,31,0.00,,,0.00,weatherlink.com 1.10,2013-01-06 14:48:00,
2013-01-06 08:03:00,45.7,18.0,30.15,ESE,108,5.0,10.0,33,0.00,,,0.00,weatherlink.com 1.10,2013-01-06 15:03:00,
2013-01-06 08:18:00,46.9,18.0,30.16,East,93,3.0,8.0,31,0.00,,,0.00,weatherlink.com 1.10,2013-01-06 15:18:00,
2013-01-06 08:33:00,48.1,17.0,30.15,East,101,4.0,7.0,29,0.00,,,0.00,weatherlink.com 1.10,2013-01-06 15:33:00,
2013-01-06 08:48:00,49.1,18.0,30.16,East,94,4.0,7.0,29,0.00,,,0.00,weatherlink.com 1.10,2013-01-06 15:48:00,
2013-01-06 09:03:00,49.6,18.0,30.16,East,96,3.0,6.0,29,0.00,,,0.00,weatherlink.com 1.10,2013-01-06 16:03:00,
2013-01-06 09:18:00,51.4,17.0,30.16,ESE,115,4.0,11.0,26,0.00,,,0.00,weatherlink.com 1.10,2013-01-06 16:18:00,
2013-01-06 09:33:00,52.4,18.0,30.16,SE,128,5.0,11.0,26,0.00,,,0.00,weatherlink.com 1.10,2013-01-06 16:33:00,
2013-01-06 09:48:00,53.4,19.0,30.16,ESE,115,3.0,7.0,26,0.00,,,0.00,weatherlink.com 1.10,2013-01-06 16:48:00,
2013-01-06 10:03:00,54.8,19.0,30.16,East,101,1.0,4.0,25,0.00,,,0.00,weatherlink.com 1.10,2013-01-06 17:03:00,
2013-01-06 10:18:00,56.4,18.0,30.15,East,79,2.0,5.0,22,0.00,,,0.00,weatherlink.com 1.10,2013-01-06 17:18:00,
2013-01-06 10:34:00,57.7,17.0,30.15,East,87,0.0,3.0,20,0.00,,,0.00,weatherlink.com 1.10,2013-01-06 17:34:00,
2013-01-06 10:49:00,60.2,18.0,30.14,ENE,70,4.0,7.0,19,0.00,,,0.00,weatherlink.com 1.10,2013-01-06 17:49:00,
2013-01-06 11:04:00,59.6,20.0,30.13,NE,44,4.0,7.0,22,0.00,,,0.00,weatherlink.com 1.10,2013-01-06 18:04:00,
2013-01-06 11:19:00,59.5,20.0,30.12,ENE,58,4.0,4.0,22,0.00,,,0.00,weatherlink.com 1.10,2013-01-06 18:19:00,
2013-01-06 11:34:00,60.6,19.0,30.11,ESE,121,1.0,7.0,20,0.00,,,0.00,weatherlink.com 1.10,2013-01-06 18:34:00,
2013-01-06 11:49:00,62.0,18.0,30.10,ENE,68,5.0,5.0,18,0.00,,,0.00,weatherlink.com 1.10,2013-01-06 18:49:00,
2013-01-06 12:04:00,63.2,16.0,30.08,ESE,116,4.0,11.0,16,0.00,,,0.00,weatherlink.com 1.10,2013-01-06 19:04:00,
2013-01-06 12:19:00,63.7,16.0,30.07,SW,217,5.0,10.0,16,0.00,,,0.00,weatherlink.com 1.10,2013-01-06 19:19:00,
2013-01-06 12:34:00,64.0,15.0,30.05,East,97,5.0,10.0,15,0.00,,,0.00,weatherlink.com 1.10,2013-01-06 19:34:00,
2013-01-06 12:49:00,64.5,16.0,30.05,SSE,148,4.0,9.0,15,0.00,,,0.00,weatherlink.com 1.10,2013-01-06 19:49:00,
2013-01-06 13:04:00,64.8,16.0,30.04,ESE,121,6.0,9.0,15,0.00,,,0.00,weatherlink.com 1.10,2013-01-06 20:04:00,
2013-01-06 13:19:00,65.0,18.0,30.03,ESE,118,4.0,6.0,16,0.00,,,0.00,weatherlink.com 1.10,2013-01-06 20:19:00,
2013-01-06 13:34:00,65.5,16.0,30.02,ESE,105,6.0,8.0,15,0.00,,,0.00,weatherlink.com 1.10,2013-01-06 20:34:00,
2013-01-06 13:49:00,65.1,16.0,30.02,East,96,3.0,9.0,15,0.00,,,0.00,weatherlink.com 1.10,2013-01-06 20:49:00,
2013-01-06 14:04:00,65.1,18.0,30.01,SE,136,2.0,8.0,16,0.00,,,0.00,weatherlink.com 1.10,2013-01-06 21:04:00,
2013-01-06 14:19:00,65.4,18.0,30.01,SE,131,4.0,9.0,16,0.00,,,0.00,weatherlink.com 1.10,2013-01-06 21:19:00,
2013-01-06 14:34:00,65.4,18.0,30.00,ESE,123,5.0,7.0,16,0.00,,,0.00,weatherlink.com 1.10,2013-01-06 21:34:00,
2013-01-06 14:49:00,65.4,18.0,29.99,ESE,122,6.0,8.0,16,0.00,,,0.00,weatherlink.com 1.10,2013-01-06 21:49:00,
2013-01-06 15:04:00,65.2,16.0,29.98,ENE,68,2.0,8.0,15,0.00,,,0.00,weatherlink.com 1.10,2013-01-06 22:04:00,
2013-01-06 15:19:00,64.8,17.0,29.97,ENE,64,5.0,6.0,16,0.00,,,0.00,weatherlink.com 1.10,2013-01-06 22:19:00,
2013-01-06 15:34:00,64.4,17.0,29.97,NE,52,4.0,4.0,16,0.00,,,0.00,weatherlink.com 1.10,2013-01-06 22:34:00,
2013-01-06 15:49:00,64.0,18.0,29.97,NE,51,4.0,6.0,17,0.00,,,0.00,weatherlink.com 1.10,2013-01-06 22:49:00,
2013-01-06 16:04:00,63.7,19.0,29.96,ESE,111,1.0,4.0,18,0.00,,,0.00,weatherlink.com 1.10,2013-01-06 23:04:00,
2013-01-06 16:19:00,63.6,19.0,29.96,East,86,1.0,7.0,18,0.00,,,0.00,weatherlink.com 1.10,2013-01-06 23:19:00,
2013-01-06 16:34:00,64.0,19.0,29.96,ENE,75,1.0,3.0,18,0.00,,,0.00,weatherlink.com 1.10,2013-01-06 23:34:00,
2013-01-06 16:49:00,64.6,19.0,29.96,ENE,61,3.0,3.0,17,0.00,,,0.00,weatherlink.com 1.10,2013-01-06 23:49:00,
2013-01-06 17:05:00,64.2,21.0,29.96,East,93,0.0,2.0,19,0.00,,,0.00,weatherlink.com 1.10,2013-01-07 00:05:00,
2013-01-06 17:20:00,63.3,20.0,29.95,East,90,0.0,2.0,19,0.00,,,0.00,weatherlink.com 1.10,2013-01-07 00:20:00,
2013-01-06 17:35:00,61.2,21.0,29.95,ESE,121,0.0,2.0,21,0.00,,,0.00,weatherlink.com 1.10,2013-01-07 00:35:00,
2013-01-06 17:50:00,58.6,22.0,29.95,ESE,120,0.0,0.0,24,0.00,,,0.00,weatherlink.com 1.10,2013-01-07 00:50:00,
2013-01-06 18:05:00,57.3,22.0,29.95,ESE,116,0.0,1.0,25,0.00,,,0.00,weatherlink.com 1.10,2013-01-07 01:05:00,
2013-01-06 18:20:00,54.4,23.0,29.95,WNW,284,0.0,1.0,30,0.00,,,0.00,weatherlink.com 1.10,2013-01-07 01:20:00,
2013-01-06 18:35:00,54.9,24.0,29.95,WNW,285,1.0,3.0,30,0.00,,,0.00,weatherlink.com 1.10,2013-01-07 01:35:00,
2013-01-06 18:50:00,54.1,25.0,29.95,WNW,290,0.0,1.0,32,0.00,,,0.00,weatherlink.com 1.10,2013-01-07 01:50:00,
2013-01-06 19:05:00,52.8,26.0,29.95,WSW,248,1.0,1.0,36,0.00,,,0.00,weatherlink.com 1.10,2013-01-07 02:05:00,
2013-01-06 19:20:00,52.1,28.0,29.95,WSW,245,0.0,1.0,39,0.00,,,0.00,weatherlink.com 1.10,2013-01-07 02:20:00,
2013-01-06 19:35:00,51.7,28.0,29.95,WSW,250,0.0,2.0,40,0.00,,,0.00,weatherlink.com 1.10,2013-01-07 02:35:00,
2013-01-06 19:50:00,50.1,28.0,29.95,WSW,255,0.0,1.0,43,0.00,,,0.00,weatherlink.com 1.10,2013-01-07 02:50:00,
2013-01-06 20:06:00,49.3,28.0,29.94,WSW,240,0.0,2.0,44,0.00,,,0.00,weatherlink.com 1.10,2013-01-07 03:06:00,
2013-01-06 20:20:00,48.7,28.0,29.95,WSW,248,0.0,1.0,45,0.00,,,0.00,weatherlink.com 1.10,2013-01-07 03:20:00,
2013-01-06 20:35:00,48.9,27.0,29.94,East,98,1.0,2.0,42,0.00,,,0.00,weatherlink.com 1.10,2013-01-07 03:35:00,
2013-01-06 20:50:00,49.1,26.0,29.94,East,86,4.0,4.0,41,0.00,,,0.00,weatherlink.com 1.10,2013-01-07 03:50:00,
2013-01-06 21:05:00,49.1,26.0,29.94,WNW,292,0.0,2.0,40,0.00,,,0.00,weatherlink.com 1.10,2013-01-07 04:05:00,
2013-01-06 21:20:00,47.4,27.0,29.94,SE,124,0.0,1.0,45,0.00,,,0.00,weatherlink.com 1.10,2013-01-07 04:20:00,
2013-01-06 21:35:00,45.5,27.0,29.95,WSW,248,0.0,0.0,48,0.00,,,0.00,weatherlink.com 1.10,2013-01-07 04:35:00,
2013-01-06 21:50:00,45.7,25.0,29.95,WSW,252,0.0,1.0,44,0.00,,,0.00,weatherlink.com 1.10,2013-01-07 04:50:00,
2013-01-06 22:20:00,45.2,27.0,29.96,WSW,248,1.0,2.0,49,0.00,,,0.00,weatherlink.com 1.10,2013-01-07 05:20:00,
2013-01-06 22:35:00,45.1,28.0,29.95,SSE,163,1.0,1.0,51,0.00,,,0.00,weatherlink.com 1.10,2013-01-07 05:35:00,
2013-01-06 22:50:00,44.1,27.0,29.95,SE,134,1.0,1.0,52,0.00,,,0.00,weatherlink.com 1.10,2013-01-07 05:50:00,
2013-01-06 23:05:00,44.2,27.0,29.95,ESE,117,0.0,1.0,51,0.00,,,0.00,weatherlink.com 1.10,2013-01-07 06:05:00,
2013-01-06 23:20:00,42.9,28.0,29.96,West,264,0.0,2.0,55,0.00,,,0.00,weatherlink.com 1.10,2013-01-07 06:20:00,
2013-01-06 23:35:00,43.1,28.0,29.95,SW,225,0.0,1.0,55,0.00,,,0.00,weatherlink.com 1.10,2013-01-07 06:35:00,
2013-01-06 23:50:00,42.0,28.0,29.95,SSE,158,0.0,1.0,58,0.00,,,0.00,weatherlink.com 1.10,2013-01-07 06:50:00,